Location: Cisewo
(53.3833°N, 14.9000°E)
Time: 05:41:38
(UTC+00:00)

NOAA 18 - Pass Details

Date: 22 September 2021
Orbit: 841 x 860 km, 99.0° (Epoch: 17 October)

Event Time Altitude Azimuth Distance (km) Brightness Sun altitude
Exits shadow 20:19:24 75° 228° (SW) 880 5.1 -27.9°
Maximum altitude 20:19:38 76° 255° (WSW) 875 5.2 -27.9°
Drops below altitude 10° 20:25:08 10° 341° (NNW) 2,483 8.4 -28.5°
Sets 20:27:32 0° 343° (NNW) 3,425 9.3 -28.7°
